Pagina principală
METAR-TAF:

METAR-TAF

Aeroporturi :

Claremore, Oklahoma, Statele Unite ale Americii

Latitudine: 36-17-40N, longitudine: 095-28-47W, elevație: 221 m

Observații meteo curente

Raportul a fost făcut în urmă cu 33 de minute, la 01:35 UTC
Vânt calm
Temperatură 22°C
Umiditate 100%
Presiune 1006 hPa
Vizibilitate: 16.1 km
Cer senin

METAR: KGCM 220135Z AUTO 00000KT 10SM CLR 22/22 A2972 RMK AO2 LTG DSNT SE-SW

Ora: 21:08 (02:08 UTC)


TAF: lipsă

Observații și prognoze meteo pentru peste 4.000 de aeroporturi (rapoarte METAR și TAF).

Stațiile disponibile sunt reprezentate pe hartă prin puncte galbene și roșii.

Țineți indicatorul mouse-ului pe punctul dorit pentru a vedea denumirea stației.

Apoi, faceți clic pentru a vedea observațiile și prognozele meteorologice.

Pentru a schimba harta: Pentru mărire, faceți clic pe butoanele verzi cu cruce neagră; pentru micșorare, pe butonul verde cu o liniuță; pentru hărți învecinate, pe săgețile verzi.


METAR-TAF: